[[{"header":{"parameterUnit":"m.s-1","parameterCategory":1,"la1":30.2991,"la2":30.254,"lo1":-89.0895,"lo2":-89.0444,"dy":0.0017,"dx":0.0017,"nx":28,"ny":28,"refTime":"2025-06-05T09:00:00:Z","depth":0,"parameterNumber":2,"parameterNumberName":"U-component_of_WINDS"},"data":[0,0,0,0,0,0,0,0,0,0,0,0,0,0,0,0,0,0,0,0,0,0,0,0,0,0,0,0,0,0,0,0,0,0,0,0,0,0,0,0,0,0,0,0,0,0,0,0,0,0,0,0,0,0,0,0,0,0,1.432,1.4322,0,1.4476,1.4478,1.448,1.4507,1.4506,1.4504,1.4503,1.467,1.4676,1.4681,0,0,0,0,0,0,0,0,0,0,0,0,0,1.4055,1.4059,1.432,1.4322,1.4324,1.4476,1.4478,1.448,1.4507,1.4505,1.4504,1.4502,1.4668,1.4675,1.4682,0,0,0,0,0,0,0,0,0,0,0,0,0,1.4186,1.4061,1.432,1.4356,1.436,1.4476,1.4478,1.4481,1.4507,1.4505,1.4503,1.4502,1.4666,1.4674,1.4683,1.4776,0,0,1.4709,1.4713,0,0,0,0,0,0,0,0,1.4179,1.4196,1.4348,1.4353,1.4359,1.447,1.4446,1.458,1.4508,1.4452,1.4503,1.4501,1.4606,1.4619,1.4653,1.4784,1.4791,1.471,1.4715,1.4719,1.4721,0,0,0,0,0,0,0,1.417,1.419,1.4382,1.4351,1.4357,1.4367,1.4383,1.4472,1.4538,1.4457,1.4459,1.4477,1.4608,1.4645,1.4657,1.4793,1.471,1.4717,1.4722,1.4726,1.5012,1.5015,0,0,0,0,0,0,1.4153,1.4182,1.4377,1.4387,1.4262,1.4373,1.4392,1.4436,1.4537,1.4551,1.4478,1.4477,1.4631,1.4647,1.4663,1.4781,1.4719,1.4727,1.4731,1.501,1.5013,1.5016,0,0,0,0,0,0,1.4147,1.417,1.4371,1.4285,1.4311,1.438,1.443,1.4441,1.4477,1.4554,1.4567,1.4502,1.463,1.4651,1.4748,1.4787,1.473,1.4738,1.5007,1.5011,1.5014,1.5016,0,0,0,0,0,0,1.4139,1.4168,1.4201,1.4286,1.4316,1.445,1.4432,1.4445,1.4491,1.4491,1.458,1.4593,1.463,1.4735,1.4756,1.4798,1.4745,1.5004,1.5009,1.5013,1.5012,1.5019,1.5024,0,0,0,0,0,1.413,1.4197,1.4203,1.4226,1.4359,1.4452,1.447,1.4509,1.4494,1.453,1.458,1.459,1.4779,1.4745,1.4769,1.4814,1.5002,1.5007,1.5013,1.501,1.5018,1.5024,0,0,0,0,0,0,1.4117,1.4208,1.4216,1.4311,1.4374,1.4457,1.4503,1.4516,1.4586,1.4584,1.4632,1.4652,1.4747,1.479,1.475,1.4911,1.489,1.49,1.4879,1.4887,1.4893,1.4881,1.4752,0,0,0,0,0,1.4125,1.4191,1.4268,1.4345,1.4375,1.4434,1.4476,1.4501,1.4569,1.4596,1.4653,1.472,1.4795,1.4844,1.4916,1.5019,1.5041,1.5062,1.5068,1.5072,1.5082,1.5142,1.5153,1.5034,1.5034,1.5034,0,0,1.4143,1.4201,1.4239,1.4343,1.4395,1.4465,1.4456,1.453,1.4583,1.4608,1.4703,1.4747,1.4826,1.4926,1.4974,1.4965,1.5119,1.508,1.5083,1.5089,1.5149,1.516,1.517,1.5038,1.5037,1.5036,0,0,1.4211,1.426,1.433,1.4382,1.4459,1.4498,1.4515,1.4597,1.4627,1.4722,1.4743,1.4809,1.4936,1.4992,1.5038,1.513,1.5144,1.5153,1.5185,1.5243,1.5253,1.5261,1.5297,1.5309,1.5161,1.5162,1.5162,0,1.4223,1.4327,1.4366,1.4439,1.4486,1.451,1.4584,1.4633,1.4731,1.4765,1.4753,1.4915,1.497,1.5085,1.5108,1.5143,1.5167,1.5143,1.5248,1.5257,1.5265,1.53,1.5313,1.5162,1.5162,1.5162,1.5162,0,1.4341,1.4412,1.4461,1.4553,1.4606,1.4679,1.4732,1.4781,1.4803,1.4844,1.4943,1.5009,1.5098,1.5127,1.5149,1.5247,1.5239,1.5237,1.5217,1.5277,1.531,1.5323,1.5163,1.5163,1.5163,1.5163,0,0,1.4403,1.4518,1.4535,1.4579,1.4667,1.4725,1.4801,1.4886,1.4928,1.4996,1.5063,1.5172,1.5171,1.5222,1.5251,1.5302,1.5375,1.5295,1.5297,1.5309,1.549,1.5492,1.5506,1.5384,1.5386,1.5388,1.5484,0,1.4483,1.4617,1.4656,1.477,1.4839,1.4865,1.4932,1.4995,1.5037,1.5104,1.5151,1.5227,1.5219,1.5251,1.5302,1.5355,1.5412,1.5348,1.545,1.5453,1.543,1.5523,1.5525,1.5612,1.5497,1.5499,1.5501,0,1.4594,1.4662,1.4783,1.4865,1.4896,1.4955,1.5037,1.51,1.5174,1.5201,1.5259,1.5284,1.5369,1.5343,1.5462,1.5418,1.5462,1.5495,1.5499,1.5511,1.5481,1.554,1.5641,1.5654,1.5521,1.552,1.5518,0,1.463,1.4753,1.4842,1.4878,1.4976,1.5017,1.5061,1.5132,1.5182,1.5255,1.5288,1.537,1.5416,1.548,1.5528,1.5505,1.5644,1.5622,1.5672,1.5671,1.57,1.5698,1.5811,1.5726,1.5726,1.5726,1.5725,0,1.4716,1.479,1.486,1.4915,1.4999,1.5045,1.5128,1.5173,1.5237,1.5303,1.5331,1.5393,1.5452,1.5524,1.5562,1.5656,1.5676,1.5703,1.5712,1.5701,1.5698,1.5732,1.5728,1.5729,1.5729,1.5728,1.5727,0,1.4771,1.4821,1.492,1.5004,1.5027,1.5086,1.516,1.5216,1.5259,1.5343,1.5366,1.5434,1.552,1.5574,1.5683,1.5709,1.5813,1.582,1.5787,1.5792,1.5839,1.5835,1.5979,1.6002,1.59,1.5901,1.5901,0,1.4823,1.488,1.4971,1.5017,1.506,1.5133,1.5183,1.5231,1.5283,1.5373,1.542,1.5507,1.5579,1.5715,1.5776,1.5861,1.5871,1.5916,1.5884,1.5872,1.5875,1.5871,1.5879,1.5922,1.5923,1.5923,1.5924,0,1.4911,1.4933,1.5003,1.5084,1.5143,1.5209,1.5275,1.5311,1.5371,1.5429,1.5516,1.5572,1.5684,1.5771,1.5861,1.5909,1.5928,1.5933,1.595,1.5939,1.5919,1.5933,1.5804,1.593,1.5929,1.5929,1.5929,1.5928,1.4968,1.5021,1.5093,1.5172,1.5227,1.5288,1.5346,1.5396,1.5469,1.5562,1.5587,1.5679,1.5755,1.5878,1.5928,1.6003,1.5997,1.602,1.6026,1.6031,1.6033,1.5906,1.6019,1.6019,1.6019,1.6019,1.6019,0,1.5059,1.5107,1.5179,1.527,1.5333,1.5343,1.5417,1.547,1.555,1.5618,1.5689,1.5791,1.5876,1.5945,1.6033,1.608,1.6091,1.6102,1.61,1.6112,1.6032,1.601,1.6092,1.6092,1.6092,1.6092,1.6092,1.6092,1.5114,1.5205,1.5236,1.5356,1.5405,1.5494,1.5536,1.5594,1.5649,1.5761,1.5832,1.5875,1.5945,1.6039,1.6119,1.6138,1.617,1.618,1.62,1.6125,1.6117,1.6109,1.6089,1.6186,1.6186,1.6273,1.6274,1.6275]},{"header":{"parameterUnit":"m.s-1","parameterCategory":1,"la1":30.2991,"la2":30.254,"lo1":-89.0895,"lo2":-89.0444,"dy":0.0017,"dx":0.0017,"nx":28,"ny":28,"refTime":"2025-06-05T09:00:00:Z","depth":0,"parameterNumber":3,"parameterNumberName":"V-component_of_WINDS"},"data":[0,0,0,0,0,0,0,0,0,0,0,0,0,0,0,0,0,0,0,0,0,0,0,0,0,0,0,0,0,0,0,0,0,0,0,0,0,0,0,0,0,0,0,0,0,0,0,0,0,0,0,0,0,0,0,0,0,0,4.6105,4.6107,0,4.6336,4.6339,4.6341,4.6379,4.6377,4.6375,4.6373,4.6598,4.6606,4.6614,0,0,0,0,0,0,0,0,0,0,0,0,0,4.5685,4.5692,4.6105,4.6108,4.6111,4.6336,4.6339,4.6342,4.6379,4.6377,4.6375,4.6372,4.6596,4.6605,4.6614,0,0,0,0,0,0,0,0,0,0,0,0,0,4.5886,4.5695,4.6104,4.6157,4.6164,4.6335,4.6339,4.6343,4.638,4.6377,4.6374,4.6371,4.6593,4.6604,4.6616,4.6748,0,0,4.6652,4.6657,0,0,0,0,0,0,0,0,4.5875,4.5902,4.6146,4.6153,4.6162,4.6326,4.6273,4.6478,4.6381,4.6297,4.6373,4.637,4.6509,4.6528,4.6577,4.6758,4.6768,4.6653,4.666,4.6665,4.6668,0,0,0,0,0,0,0,4.5861,4.5892,4.6196,4.6149,4.6159,4.6165,4.619,4.6312,4.6417,4.6304,4.6308,4.6335,4.6513,4.6566,4.6583,4.6771,4.6652,4.6663,4.667,4.6675,4.7073,4.7076,0,0,0,0,0,0,4.5839,4.588,4.6189,4.6203,4.6008,4.6175,4.6204,4.6276,4.6416,4.6434,4.6338,4.6336,4.6547,4.6569,4.6591,4.6757,4.6665,4.6676,4.6682,4.707,4.7074,4.7078,0,0,0,0,0,0,4.583,4.5866,4.6179,4.6043,4.6083,4.6186,4.6267,4.6282,4.6335,4.6441,4.6458,4.6374,4.6546,4.6574,4.671,4.6765,4.6681,4.6692,4.7065,4.7071,4.7076,4.7088,0,0,0,0,0,0,4.5818,4.5863,4.5916,4.6044,4.609,4.6298,4.627,4.6289,4.6357,4.6357,4.6479,4.6496,4.6546,4.6692,4.6721,4.678,4.6701,4.7061,4.7068,4.7074,4.7084,4.7094,4.7102,0,0,0,0,0,4.5802,4.5908,4.5919,4.5956,4.616,4.6301,4.6327,4.6385,4.6361,4.6415,4.6483,4.6492,4.6754,4.6705,4.6739,4.6802,4.7058,4.7066,4.7074,4.7079,4.7092,4.7102,0,0,0,0,0,0,4.5779,4.5925,4.5939,4.609,4.6183,4.6307,4.6376,4.6396,4.6495,4.649,4.6554,4.6581,4.6714,4.677,4.6714,4.6937,4.6903,4.6918,4.6896,4.6909,4.6918,4.6902,4.6711,0,0,0,0,0,4.5793,4.5898,4.6018,4.6139,4.6186,4.6273,4.6336,4.6373,4.6471,4.6509,4.6587,4.6678,4.6781,4.6847,4.6948,4.7091,4.7118,4.715,4.7159,4.7167,4.7179,4.7261,4.7277,4.7104,4.7104,4.7104,0,0,4.5819,4.5912,4.5974,4.6137,4.6214,4.6319,4.6306,4.6417,4.6495,4.6525,4.666,4.6719,4.6825,4.6966,4.7031,4.7017,4.7233,4.7177,4.7182,4.7191,4.7271,4.7287,4.7302,4.7109,4.7108,4.7107,0,0,4.5923,4.6004,4.6115,4.6193,4.6312,4.6369,4.6395,4.6517,4.656,4.6697,4.6722,4.6813,4.6988,4.7064,4.7125,4.7259,4.7272,4.7289,4.7338,4.7417,4.743,4.7443,4.7493,4.7509,4.7301,4.7301,4.7301,0,4.5941,4.6105,4.6168,4.6281,4.6352,4.6387,4.6499,4.657,4.6713,4.6759,4.6742,4.6965,4.7038,4.7198,4.7232,4.7279,4.731,4.7277,4.7424,4.7437,4.745,4.7498,4.7516,4.7302,4.7302,4.7302,4.7302,0,4.6122,4.6235,4.6309,4.6453,4.6531,4.6642,4.672,4.679,4.682,4.6879,4.7017,4.7107,4.7227,4.7267,4.7294,4.7431,4.7419,4.7412,4.7379,4.7467,4.7513,4.7532,4.7304,4.7304,4.7303,4.7303,0,0,4.6219,4.6397,4.6424,4.6491,4.6624,4.6711,4.6822,4.6944,4.7005,4.7101,4.7196,4.7344,4.734,4.7409,4.7445,4.7514,4.7617,4.7499,4.7502,4.752,4.7774,4.7781,4.7802,4.7625,4.7629,4.7632,4.7767,0,4.6341,4.6547,4.6608,4.678,4.6885,4.692,4.7017,4.7108,4.7165,4.726,4.732,4.7427,4.7411,4.7454,4.7523,4.759,4.7669,4.758,4.7713,4.7717,4.769,4.7826,4.7833,4.7956,4.7785,4.7788,4.779,0,4.6511,4.6617,4.6801,4.6924,4.697,4.7057,4.7175,4.7265,4.7368,4.7404,4.7483,4.7514,4.7629,4.7589,4.7748,4.7687,4.7744,4.7784,4.779,4.7807,4.7761,4.7848,4.7996,4.8016,4.7819,4.7816,4.7814,0,4.6567,4.6754,4.689,4.6945,4.709,4.7151,4.7213,4.7313,4.7383,4.7484,4.753,4.7641,4.7702,4.7785,4.7844,4.7809,4.7999,4.7963,4.8032,4.8031,4.8073,4.807,4.8234,4.8104,4.8104,4.8104,4.8103,0,4.6699,4.681,4.6918,4.7001,4.7127,4.7193,4.7315,4.7378,4.7467,4.7561,4.7595,4.7682,4.7754,4.7849,4.7895,4.8021,4.8047,4.8079,4.809,4.8078,4.8074,4.8118,4.8112,4.8109,4.8108,4.8107,4.8106,0,4.6783,4.686,4.7011,4.7137,4.7171,4.7259,4.7365,4.7446,4.7504,4.7623,4.7654,4.7745,4.786,4.7927,4.8069,4.81,4.824,4.8246,4.8208,4.8214,4.828,4.8274,4.8481,4.8512,4.8358,4.836,4.8361,0,4.6864,4.6952,4.7089,4.7158,4.7223,4.733,4.7404,4.7471,4.7545,4.7669,4.7735,4.7853,4.7951,4.8131,4.8208,4.8317,4.8327,4.8392,4.8344,4.833,4.8332,4.8327,4.8337,4.8401,4.8403,4.8404,4.8405,0,4.7,4.7034,4.7141,4.7262,4.7349,4.7446,4.7542,4.7594,4.7677,4.7757,4.7878,4.7954,4.8103,4.8219,4.8335,4.8395,4.8414,4.8419,4.8442,4.8431,4.8407,4.8424,4.8234,4.8415,4.8414,4.8413,4.8412,4.8412,4.7087,4.7168,4.7279,4.7397,4.7477,4.7566,4.765,4.7721,4.7824,4.7954,4.7985,4.8111,4.8211,4.837,4.8433,4.8531,4.852,4.8551,4.856,4.8567,4.8571,4.8389,4.8551,4.8551,4.8551,4.8551,4.8551,0,4.7228,4.7301,4.7409,4.7545,4.7638,4.765,4.7757,4.7833,4.7946,4.8039,4.8136,4.8274,4.8388,4.8473,4.8589,4.865,4.8662,4.8678,4.8676,4.869,4.8573,4.8544,4.8668,4.8668,4.8668,4.8667,4.8667,4.8667,4.7312,4.7451,4.7498,4.7676,4.7747,4.7876,4.7936,4.8018,4.8094,4.8249,4.8345,4.8401,4.8491,4.8614,4.8717,4.8739,4.8781,4.8797,4.882,4.871,4.8698,4.8686,4.8659,4.8805,4.8805,4.893,4.8931,4.8932]}]]